DW0904 Weather Reports


Display with metric or nautical units.
time (UTC)temp
F
wind
direction
speed
MPH
gust
MPH
rain 1hr
in
rain 24hr
in
rain mn
in
humidity
%
barometer
mb
20190218040502 62 322 0.0 0.0 0.00 0.00 0.00 80 1014.9
20190218040003 62 359 0.0 0.0 0.00 0.00 0.00 80 1014.8
20190218035503 62 322 0.0 0.0 0.00 0.00 0.00 79 1014.7
20190218035002 62 359 0.0 0.0 0.00 0.00 0.00 79 1014.7
20190218034502 62 322 0.0 0.0 0.00 0.00 0.00 78 1014.7
20190218034002 62 359 0.0 0.0 0.00 0.00 0.00 79 1014.7
20190218033504 63 322 0.0 0.0 0.00 0.00 0.00 79 1014.6
20190218033002 63 359 0.0 0.0 0.00 0.00 0.00 78 1014.5
20190218032502 63 321 0.0 0.0 0.00 0.00 0.00 78 1014.5
20190218032002 63 322 0.0 2.0 0.00 0.00 0.00 78 1014.5
20190218031503 63 322 0.0 0.0 0.00 0.00 0.00 78 1014.3
20190218031002 63 322 0.0 0.0 0.00 0.00 0.00 78 1014.4
20190218030502 63 322 1.0 2.0 0.00 0.00 0.00 78 1014.5
20190218030002 63 322 1.0 1.0 0.00 0.00 0.00 78 1014.5
20190218025502 63 304 0.0 1.0 0.00 0.00 0.00 77 1014.6
20190218025002 63 304 0.0 1.0 0.00 0.00 0.00 77 1014.5
20190218024502 63 304 0.0 1.0 0.00 0.00 0.00 77 1014.6
20190218024002 63 359 1.0 2.0 0.00 0.00 0.00 77 1014.6
20190218023502 63 304 2.0 2.0 0.00 0.00 0.00 77 1014.6
20190218023002 63 359 1.0 1.0 0.00 0.00 0.00 77 1014.6
20190218022502 63 310 1.0 2.0 0.00 0.00 0.00 77 1014.7
20190218022002 63 311 1.0 1.0 0.00 0.00 0.00 76 1014.6
20190218021502 63 310 1.0 2.0 0.00 0.00 0.00 76 1014.7
20190218021003 63 359 0.0 0.0 0.00 0.00 0.00 76 1014.7
20190218020502 63 312 0.0 0.0 0.00 0.00 0.00 76 1014.7
20190218020003 64 312 0.0 0.0 0.00 0.00 0.00 76 1014.7
20190218015502 64 312 0.0 0.0 0.00 0.00 0.00 76 1014.8
20190218015002 64 359 0.0 0.0 0.00 0.00 0.00 76 1014.8
20190218014503 64 359 0.0 1.0 0.00 0.00 0.00 76 1014.9
20190218014002 64 310 1.0 2.0 0.00 0.00 0.00 76 1014.9
20190218013502 64 310 2.0 2.0 0.00 0.00 0.00 76 1014.9
20190218013002 64 312 0.0 1.0 0.00 0.00 0.00 76 1015.0
20190218012502 64 359 0.0 0.0 0.00 0.00 0.00 75 1015.0
20190218012002 64 312 0.0 0.0 0.00 0.00 0.00 75 1015.0
20190218011503 64 359 1.0 2.0 0.00 0.00 0.00 75 1015.0
20190218011003 64 312 1.0 2.0 0.00 0.00 0.00 75 1015.1
20190218010503 64 314 0.0 1.0 0.00 0.00 0.00 76 1015.0
20190218010002 64 359 0.0 1.0 0.00 0.00 0.00 75 1015.0
20190218005502 64 317 0.0 1.0 0.00 0.00 0.00 75 1015.1
20190218005002 64 314 0.0 1.0 0.00 0.00 0.00 75 1015.1
20190218004502 64 314 1.0 1.0 0.00 0.00 0.00 75 1015.2
20190218004002 64 314 0.0 0.0 0.00 0.00 0.00 75 1015.3
20190218003502 65 314 0.0 0.0 0.00 0.00 0.00 74 1015.4
20190218003003 65 314 0.0 1.0 0.00 0.00 0.00 74 1015.4
20190218002502 65 359 1.0 2.0 0.00 0.00 0.00 74 1015.4
20190218002002 65 339 0.0 1.0 0.00 0.00 0.00 74 1015.4
20190218001502 65 359 1.0 2.0 0.00 0.00 0.00 73 1015.5
20190218001002 65 319 0.0 1.0 0.00 0.00 0.00 73 1015.6
20190218000502 65 321 0.0 1.0 0.00 0.00 0.00 73 1015.6
20190218000002 65 359 0.0 0.0 0.00 0.00 0.00 73 1015.6
20190217235502 65 321 0.0 2.0 0.00 0.00 0.00 73 1015.6
20190217235002 65 359 0.0 1.0 0.00 0.00 0.00 73 1015.6
20190217234502 65 321 0.0 0.0 0.00 0.00 0.00 72 1015.6
20190217234003 66 321 0.0 0.0 0.00 0.00 0.00 72 1015.7
20190217233502 66 321 0.0 1.0 0.00 0.00 0.00 72 1015.8
20190217233002 66 321 0.0 1.0 0.00 0.00 0.00 72 1015.9
20190217232502 66 321 0.0 1.0 0.00 0.00 0.00 72 1016.0
20190217232002 66 320 1.0 1.0 0.00 0.00 0.00 72 1016.0
20190217231502 66 321 1.0 3.0 0.00 0.00 0.00 71 1016.0
20190217231002 66 312 0.0 0.0 0.00 0.00 0.00 71 1016.0
20190217230503 66 359 1.0 2.0 0.00 0.00 0.00 71 1016.1
20190217230002 66 312 1.0 2.0 0.00 0.00 0.00 71 1016.1
20190217225502 66 319 2.0 2.0 0.00 0.00 0.00 71 1016.3
20190217225002 66 310 3.0 4.0 0.00 0.00 0.00 71 1016.3
20190217224503 67 359 3.0 3.0 0.00 0.00 0.00 71 1016.3
20190217224002 67 324 2.0 3.0 0.00 0.00 0.00 70 1016.3
20190217223502 67 314 2.0 3.0 0.00 0.00 0.00 70 1016.3
20190217223002 67 322 2.0 2.0 0.00 0.00 0.00 70 1016.3
20190217222502 67 323 1.0 2.0 0.00 0.00 0.00 69 1016.3
20190217222003 68 313 2.0 2.0 0.00 0.00 0.00 69 1016.4
20190217221503 68 315 2.0 3.0 0.00 0.00 0.00 69 1016.4
20190217221002 68 308 2.0 3.0 0.00 0.00 0.00 68 1016.5
20190217220502 68 340 3.0 4.0 0.00 0.00 0.00 68 1016.4
20190217220003 68 359 2.0 3.0 0.00 0.00 0.00 68 1016.5
20190217215502 68 324 3.0 4.0 0.00 0.00 0.00 67 1016.5
20190217215003 69 291 2.0 3.0 0.00 0.00 0.00 67 1016.5
20190217214503 69 359 2.0 4.0 0.00 0.00 0.00 67 1016.5
20190217214003 69 359 2.0 4.0 0.00 0.00 0.00 66 1016.5
20190217213502 69 309 2.0 3.0 0.00 0.00 0.00 66 1016.6
20190217213003 69 316 2.0 3.0 0.00 0.00 0.00 65 1016.6
20190217212503 70 316 2.0 2.0 0.00 0.00 0.00 65 1016.6
20190217212002 70 316 1.0 2.0 0.00 0.00 0.00 65 1016.6
20190217211502 70 309 1.0 2.0 0.00 0.00 0.00 64 1016.6
20190217211004 70 324 2.0 3.0 0.00 0.00 0.00 64 1016.5
20190217210502 70 359 1.0 2.0 0.00 0.00 0.00 63 1016.5
20190217210002 71 332 1.0 3.0 0.00 0.00 0.00 63 1016.4
20190217205502 71 340 2.0 2.0 0.00 0.00 0.00 62 1016.5
20190217205002 71 322 2.0 4.0 0.00 0.00 0.00 62 1016.5
20190217204503 72 297 3.0 4.0 0.00 0.00 0.00 60 1016.5
20190217204002 73 318 2.0 3.0 0.00 0.00 0.00 58 1016.5
20190217203504 74 309 2.0 3.0 0.00 0.00 0.00 56 1016.5
20190217203003 75 309 2.0 5.0 0.00 0.00 0.00 54 1016.4
20190217202505 75 19 3.0 5.0 0.00 0.00 0.00 51 1016.4
20190217202002 76 106 5.0 6.0 0.00 0.00 0.00 50 1016.4
20190217201502 76 99 3.0 4.0 0.00 0.00 0.00 50 1016.3
20190217201002 76 114 4.0 6.0 0.00 0.00 0.00 50 1016.3
20190217200502 76 80 3.0 4.0 0.00 0.00 0.00 50 1016.3
20190217200002 76 139 0.0 2.0 0.00 0.00 0.00 49 1016.4
20190217195502 77 121 1.0 1.0 0.00 0.00 0.00 49 1016.4
20190217195002 77 121 1.0 2.0 0.00 0.00 0.00 48 1016.4
20190217194503 77 150 1.0 2.0 0.00 0.00 0.00 48 1016.4
20190217194002 78 154 0.0 0.0 0.00 0.00 0.00 47 1016.4
20190217193502 78 154 1.0 2.0 0.00 0.00 0.00 46 1016.3
20190217193003 78 122 1.0 2.0 0.00 0.00 0.00 46 1016.3
20190217192503 78 133 2.0 4.0 0.00 0.00 0.00 45 1016.2
20190217192002 79 131 1.0 2.0 0.00 0.00 0.00 45 1016.2
20190217191503 79 152 3.0 6.0 0.00 0.00 0.00 45 1016.0
20190217191003 79 102 5.0 7.0 0.00 0.00 0.00 45 1015.9
20190217190502 79 116 7.0 9.0 0.00 0.00 0.00 45 1015.8
20190217190002 79 145 6.0 12.0 0.00 0.00 0.00 45 1015.8
20190217185502 79 108 7.0 10.0 0.00 0.00 0.00 45 1015.7
20190217185003 79 128 5.0 8.0 0.00 0.00 0.00 44 1015.6
20190217184502 80 135 7.0 15.0 0.00 0.00 0.00 44 1015.5
20190217184002 80 123 6.0 10.0 0.00 0.00 0.00 43 1015.4
20190217183502 80 149 6.0 8.0 0.00 0.00 0.00 43 1015.3
20190217183002 80 96 7.0 11.0 0.00 0.00 0.00 43 1015.3
20190217182502 80 168 10.0 12.0 0.00 0.00 0.00 42 1015.3
20190217182003 81 147 7.0 13.0 0.00 0.00 0.00 42 1015.2
20190217181502 81 105 9.0 17.0 0.00 0.00 0.00 41 1015.1
20190217181003 81 91 9.0 16.0 0.00 0.00 0.00 40 1015.0
20190217180503 81 120 7.0 11.0 0.00 0.00 0.00 40 1015.0
20190217180003 81 161 9.0 13.0 0.00 0.00 0.00 39 1015.0
20190217175502 82 137 11.0 19.0 0.00 0.00 0.00 38 1014.9
20190217175003 82 95 9.0 15.0 0.00 0.00 0.00 38 1014.9
20190217174502 82 113 14.0 19.0 0.00 0.00 0.00 37 1014.9
20190217174002 82 120 13.0 21.0 0.00 0.00 0.00 37 1014.8
20190217173502 83 131 10.0 18.0 0.00 0.00 0.00 36 1014.8
20190217173003 83 94 9.0 15.0 0.00 0.00 0.00 36 1014.7
20190217172502 83 81 7.0 9.0 0.00 0.00 0.00 36 1014.7
20190217172006 84 90 8.0 12.0 0.00 0.00 0.00 35 1014.7
20190217171502 84 359 5.0 7.0 0.00 0.00 0.00 35 1014.7
20190217171003 85 133 11.0 16.0 0.00 0.00 0.00 34 1014.7
20190217170502 85 143 10.0 14.0 0.00 0.00 0.00 32 1014.6
20190217170002 85 63 7.0 9.0 0.00 0.00 0.00 31 1014.6
20190217165503 86 127 9.0 12.0 0.00 0.00 0.00 31 1014.6
20190217165003 86 114 10.0 16.0 0.00 0.00 0.00 30 1014.6
20190217164502 87 97 10.0 16.0 0.00 0.00 0.00 29 1014.5
20190217164002 87 137 7.0 11.0 0.00 0.00 0.00 28 1014.5
20190217163503 88 98 11.0 19.0 0.00 0.00 0.00 28 1014.5
20190217163003 88 133 10.0 17.0 0.00 0.00 0.00 27 1014.5
20190217162502 89 98 7.0 14.0 0.00 0.00 0.00 27 1014.5
20190217162003 89 132 11.0 15.0 0.00 0.00 0.00 26 1014.5
20190217161502 90 110 10.0 12.0 0.00 0.00 0.00 25 1014.5
20190217161002 90 158 8.0 11.0 0.00 0.00 0.00 25 1014.5
20190217160502 91 119 13.0 22.0 0.00 0.00 0.00 23 1014.5
20190217160002 92 127 8.0 10.0 0.00 0.00 0.00 23 1014.4
20190217155503 93 135 9.0 13.0 0.00 0.00 0.00 22 1014.4
20190217155002 94 133 5.0 8.0 0.00 0.00 0.00 21 1014.5
20190217154502 94 93 9.0 15.0 0.00 0.00 0.00 20 1014.4
20190217154002 95 156 9.0 19.0 0.00 0.00 0.00 20 1014.5
20190217153503 95 139 5.0 9.0 0.00 0.00 0.00 20 1014.5
20190217153002 96 176 5.0 9.0 0.00 0.00 0.00 20 1014.5
20190217152502 96 163 8.0 13.0 0.00 0.00 0.00 20 1014.5
20190217152003 96 110 7.0 11.0 0.00 0.00 0.00 20 1014.5
20190217151503 97 139 6.0 12.0 0.00 0.00 0.00 20 1014.5
20190217151004 97 126 4.0 8.0 0.00 0.00 0.00 21 1014.4
20190217150502 97 133 5.0 9.0 0.00 0.00 0.00 21 1014.4
20190217150003 98 112 7.0 10.0 0.00 0.00 0.00 20 1014.4
20190217145506 98 117 6.0 9.0 0.00 0.00 0.00 20 1014.3
20190217145002 98 112 5.0 9.0 0.00 0.00 0.00 21 1014.3
20190217144502 98 153 4.0 7.0 0.00 0.00 0.00 21 1014.3
20190217144002 98 87 6.0 10.0 0.00 0.00 0.00 21 1014.4
20190217143503 99 158 7.0 14.0 0.00 0.00 0.00 20 1014.5
20190217143002 99 157 3.0 5.0 0.00 0.00 0.00 21 1014.6
20190217142503 98 116 3.0 5.0 0.00 0.00 0.00 21 1014.6
20190217142004 98 126 4.0 7.0 0.00 0.00 0.00 21 1014.6
20190217141504 98 216 4.0 7.0 0.00 0.00 0.00 22 1014.6
20190217141002 97 108 4.0 7.0 0.00 0.00 0.00 23 1014.7
20190217140502 97 342 3.0 8.0 0.00 0.00 0.00 23 1014.7
20190217140002 97 263 3.0 5.0 0.00 0.00 0.00 23 1014.9
20190217135502 97 284 3.0 4.0 0.00 0.00 0.00 23 1015.1
20190217135002 96 187 8.0 18.0 0.00 0.00 0.00 24 1014.9
20190217134502 96 359 6.0 8.0 0.00 0.00 0.00 24 1014.9
20190217134004 96 297 6.0 9.0 0.00 0.00 0.00 23 1015.0
20190217133503 97 359 6.0 9.0 0.00 0.00 0.00 22 1015.2
20190217133002 97 254 5.0 8.0 0.00 0.00 0.00 23 1015.2
20190217132502 97 359 5.0 6.0 0.00 0.00 0.00 23 1015.3
20190217132002 97 245 7.0 11.0 0.00 0.00 0.00 23 1015.3
20190217131502 96 359 4.0 7.0 0.00 0.00 0.00 23 1015.3
20190217131003 96 295 6.0 9.0 0.00 0.00 0.00 24 1015.4
20190217130503 96 359 6.0 11.0 0.00 0.00 0.00 23 1015.5
20190217130002 96 210 6.0 10.0 0.00 0.00 0.00 23 1015.6
20190217125502 97 278 6.0 9.0 0.00 0.00 0.00 23 1015.6
20190217125002 97 260 6.0 8.0 0.00 0.00 0.00 23 1015.6
20190217124502 97 172 2.0 3.0 0.00 0.00 0.00 22 1015.7
20190217124003 97 263 6.0 9.0 0.00 0.00 0.00 22 1015.7
20190217123502 97 293 3.0 5.0 0.00 0.00 0.00 21 1015.7
20190217123003 98 260 1.0 3.0 0.00 0.00 0.00 21 1015.8
20190217122502 98 244 4.0 7.0 0.00 0.00 0.00 22 1015.9
20190217122002 97 164 1.0 2.0 0.00 0.00 0.00 22 1015.9
20190217121502 97 214 4.0 7.0 0.00 0.00 0.00 21 1015.9
20190217121002 97 216 4.0 5.0 0.00 0.00 0.00 21 1015.9
20190217120503 97 303 3.0 4.0 0.00 0.00 0.00 21 1016.0
20190217120002 98 305 4.0 6.0 0.00 0.00 0.00 21 1016.1
20190217115502 97 293 2.0 6.0 0.00 0.00 0.00 21 1016.2
20190217115002 97 39 1.0 3.0 0.00 0.00 0.00 21 1016.3
20190217114502 97 197 2.0 4.0 0.00 0.00 0.00 20 1016.3
20190217114002 97 4 2.0 3.0 0.00 0.00 0.00 21 1016.3
20190217113503 96 241 2.0 4.0 0.00 0.00 0.00 21 1016.5
20190217113002 96 219 2.0 3.0 0.00 0.00 0.00 21 1016.5
20190217112502 95 271 2.0 3.0 0.00 0.00 0.00 22 1016.6
20190217112003 95 257 2.0 4.0 0.00 0.00 0.00 21 1016.6
20190217111502 95 269 3.0 6.0 0.00 0.00 0.00 22 1016.6
20190217111002 95 29 2.0 3.0 0.00 0.00 0.00 23 1016.7
20190217110502 94 287 2.0 4.0 0.00 0.00 0.00 23 1016.7
20190217110003 94 350 2.0 4.0 0.00 0.00 0.00 23 1016.8
20190217105502 94 286 2.0 3.0 0.00 0.00 0.00 24 1016.8
20190217105002 94 315 2.0 3.0 0.00 0.00 0.00 24 1016.9
20190217104502 93 359 1.0 2.0 0.00 0.00 0.00 25 1017.1
20190217104003 93 270 2.0 4.0 0.00 0.00 0.00 26 1017.1
20190217103502 92 312 4.0 6.0 0.00 0.00 0.00 26 1017.2
20190217103002 92 237 2.0 4.0 0.00 0.00 0.00 27 1017.2
20190217102502 91 143 2.0 4.0 0.00 0.00 0.00 26 1017.2
20190217102002 91 359 2.0 4.0 0.00 0.00 0.00 27 1017.3
20190217101503 91 204 2.0 3.0 0.00 0.00 0.00 28 1017.4
20190217101002 90 359 2.0 3.0 0.00 0.00 0.00 29 1017.6
20190217100502 90 40 1.0 3.0 0.00 0.00 0.00 29 1017.7
20190217100003 90 359 3.0 4.0 0.00 0.00 0.00 30 1017.8
20190217095502 90 46 2.0 3.0 0.00 0.00 0.00 30 1017.8
20190217095002 90 283 2.0 3.0 0.00 0.00 0.00 31 1017.8
20190217094510 89 199 1.0 2.0 0.00 0.00 0.00 33 1017.9
20190217094002 88 147 1.0 2.0 0.00 0.00 0.00 33 1018.0
20190217093502 88 258 2.0 4.0 0.00 0.00 0.00 33 1018.0
20190217093002 87 187 2.0 4.0 0.00 0.00 0.00 35 1018.2
20190217092502 87 359 1.0 2.0 0.00 0.00 0.00 36 1018.1
20190217092002 86 145 2.0 4.0 0.00 0.00 0.00 37 1018.2
20190217091502 86 221 3.0 5.0 0.00 0.00 0.00 37 1018.2
20190217091003 86 359 2.0 4.0 0.00 0.00 0.00 38 1018.2
20190217090504 86 204 3.0 5.0 0.00 0.00 0.00 39 1018.1
20190217090003 85 138 2.0 3.0 0.00 0.00 0.00 40 1018.1
20190217085502 84 206 2.0 4.0 0.00 0.00 0.00 41 1018.2
20190217085002 84 359 2.0 3.0 0.00 0.00 0.00 41 1018.3
20190217084502 84 102 2.0 3.0 0.00 0.00 0.00 42 1018.3
20190217084002 83 216 2.0 3.0 0.00 0.00 0.00 43 1018.3
20190217083502 82 107 2.0 3.0 0.00 0.00 0.00 44 1018.3
20190217083003 82 268 2.0 4.0 0.00 0.00 0.00 45 1018.3
20190217082502 81 208 1.0 2.0 0.00 0.00 0.00 45 1018.3
20190217082003 81 251 3.0 6.0 0.00 0.00 0.00 46 1018.3
20190217081502 81 231 2.0 3.0 0.00 0.00 0.00 46 1018.2
20190217081002 80 182 1.0 3.0 0.00 0.00 0.00 49 1018.2
20190217080502 79 359 2.0 3.0 0.00 0.00 0.00 50 1018.3
20190217080002 79 248 2.0 4.0 0.00 0.00 0.00 58 1018.3
20190217075502 78 97 1.0 2.0 0.00 0.00 0.00 64 1018.3
20190217075003 77 359 1.0 2.0 0.00 0.00 0.00 65 1018.4
20190217074502 76 297 2.0 3.0 0.00 0.00 0.00 67 1018.5
20190217074002 75 359 1.0 2.0 0.00 0.00 0.00 68 1018.5
20190217073502 75 245 2.0 3.0 0.00 0.00 0.00 70 1018.5
20190217073003 74 359 2.0 3.0 0.00 0.00 0.00 71 1018.5
20190217072502 74 312 1.0 3.0 0.00 0.00 0.00 73 1018.4
20190217072002 73 298 1.0 2.0 0.00 0.00 0.00 75 1018.4
20190217071502 72 308 1.0 2.0 0.00 0.00 0.00 76 1018.4
20190217071002 72 297 2.0 2.0 0.00 0.00 0.00 77 1018.4
20190217070503 71 289 4.0 8.0 0.00 0.00 0.00 78 1018.4
20190217070003 71 359 4.0 6.0 0.00 0.00 0.00 79 1018.4
20190217065502 70 359 4.0 7.0 0.00 0.00 0.00 80 1018.3
20190217065002 70 276 4.0 7.0 0.00 0.00 0.00 82 1018.3
20190217064503 69 316 3.0 4.0 0.00 0.00 0.00 83 1018.3
20190217064002 68 359 3.0 5.0 0.00 0.00 0.00 85 1018.3
20190217063502 67 299 2.0 3.0 0.00 0.00 0.00 86 1018.3
20190217063003 66 359 2.0 3.0 0.00 0.00 0.00 87 1018.1
20190217062502 66 359 4.0 5.0 0.00 0.00 0.00 88 1018.0
20190217062002 65 289 3.0 5.0 0.00 0.00 0.00 90 1018.1
20190217061502 64 286 2.0 3.0 0.00 0.00 0.00 91 1018.2
20190217061002 63 310 2.0 4.0 0.00 0.00 0.00 92 1018.2
20190217060502 62 284 2.0 3.0 0.00 0.00 0.00 92 1018.2
20190217060002 62 312 2.0 4.0 0.00 0.00 0.00 93 1018.3
20190217055502 61 293 2.0 3.0 0.00 0.00 0.00 94 1018.2
20190217055002 61 299 2.0 2.0 0.00 0.00 0.00 94 1018.2
20190217054502 61 303 1.0 1.0 0.00 0.00 0.00 95 1018.2
20190217054002 60 304 0.0 2.0 0.00 0.00 0.00 95 1018.1
20190217053502 60 304 1.0 2.0 0.00 0.00 0.00 95 1018.2
20190217053002 59 359 1.0 2.0 0.00 0.00 0.00 95 1018.2
20190217052502 59 8 0.0 0.0 0.00 0.00 0.00 95 1018.2
20190217052002 59 8 0.0 0.0 0.00 0.00 0.00 94 1018.2
20190217051502 58 4 0.0 0.0 0.00 0.00 0.00 93 1018.1
20190217051003 58 8 0.0 0.0 0.00 0.00 0.00 92 1018.1
20190217050502 58 8 0.0 0.0 0.00 0.00 0.00 91 1018.0
20190217050002 58 8 0.0 0.0 0.00 0.00 0.00 90 1017.9
20190217045502 58 8 0.0 0.0 0.00 0.00 0.00 89 1017.9
20190217045003 58 8 0.0 0.0 0.00 0.00 0.00 88 1017.8
20190217044502 58 8 0.0 0.0 0.00 0.00 0.00 88 1017.8
20190217044002 58 8 0.0 0.0 0.00 0.00 0.00 87 1017.8
20190217043503 58 8 0.0 0.0 0.00 0.00 0.00 87 1017.7
20190217043002 58 8 0.0 0.0 0.00 0.00 0.00 87 1017.6
20190217042502 58 8 0.0 0.0 0.00 0.00 0.00 87 1017.6
20190217042002 58 8 0.0 0.0 0.00 0.00 0.00 86 1017.6
20190217041502 58 8 0.0 0.0 0.00 0.00 0.00 86 1017.5
20190217041002 58 8 0.0 0.0 0.00 0.00 0.00 86 1017.5